Simultaneous Nadir Overpasses (SNOs) Predictions

Prediction of SNOs between METOP-A and NOAA-19 Satellite Orbit:

Table of predicted SNOs for the next 14.0 days since TLE Epoch: 1/10/2016
Index Date (METOP-A) Time (METOP-A) Lat,Lon (METOP-A) SZA (METOP-A ) Date (NOAA-19) Time (NOAA-19) Lat,Lon (NOAA-19) SZA (NOAA-19 ) Distance(km) Time Diff (sec)
1 01/13/2016 03:29:35 76.11, 127.88 97.62 01/13/2016 03:28:28 76.15, 124.82 97.71 81.83 67
2 01/13/2016 04:20:26 -75.66, -66.27 82.83 01/13/2016 04:19:21 -75.66, -66.23 82.82 1.26 65
3 01/13/2016 05:11:06 75.67, 101.09 97.18 01/13/2016 05:10:19 75.64, 101.09 97.16 3.45 47
4 01/13/2016 06:01:48 -75.64, -91.67 82.86 01/13/2016 06:01:23 -75.65, -91.69 82.85 0.82 25
5 01/13/2016 06:52:29 75.61, 75.55 97.11 01/13/2016 06:52:21 75.63, 75.63 97.13 3.24 8
6 01/13/2016 07:43:10 -75.62,-117.07 82.89 01/13/2016 07:43:25 -75.64,-117.16 82.87 2.71 15
7 01/13/2016 08:33:51 75.59, 50.15 97.08 01/13/2016 08:34:23 75.62, 50.16 97.10 2.97 32
8 01/13/2016 09:24:32 -75.61,-142.47 82.92 01/13/2016 09:25:26 -75.58,-142.47 82.95 3.19 54
9 01/13/2016 10:15:13 75.57, 24.75 97.05 01/13/2016 10:16:24 75.56, 24.85 97.03 3.24 71
10 01/23/2016 17:44:12 -76.07, 94.11 84.55 01/23/2016 17:43:03 -76.04, 91.75 84.53 63.20 69
11 01/23/2016 18:35:00 75.71, -99.76 95.10 01/23/2016 18:33:56 75.70, -99.78 95.10 1.38 64
12 01/23/2016 19:25:42 -75.68, 67.48 84.94 01/23/2016 19:24:57 -75.67, 67.54 84.94 1.80 45
13 01/23/2016 20:16:22 75.69,-125.16 95.07 01/23/2016 20:15:58 75.68,-125.24 95.07 2.46 24
14 01/23/2016 21:07:04 -75.66, 42.08 84.97 01/23/2016 21:06:59 -75.66, 42.08 84.97 0.23 5
15 01/23/2016 21:57:45 75.62,-150.71 94.99 01/23/2016 21:57:59 75.63,-150.56 94.99 4.14 14
16 01/23/2016 22:48:26 -75.64, 16.68 85.01 01/23/2016 22:49:01 -75.65, 16.61 85.00 2.25 35
17 01/23/2016 23:39:07 75.60,-176.11 94.95 01/23/2016 23:40:01 75.61,-176.02 94.96 2.54 54
18 01/24/2016 00:29:48 -75.62, -8.71 85.04 01/24/2016 00:31:02 -75.59, -8.71 85.08 3.50 74




NCC Satellite Simultaneous Nadir Overpasses (SNOs) Prediction Service
